Location: Newark
(15.4608°S, 41.1635°W)
Time: 14:37:50
(UTC+00:00)

Vanguard 3 - Pass Details

Date: 05 March 2021
Orbit: 508 x 3262 km, 33.3° (Epoch: 16 April)

Event Time Altitude Azimuth Distance (km) Brightness Sun altitude
Exits shadow 07:34:14 - 219° (SW) 2,608 9.5 -17.9°
Reaches altitude 10° 07:35:32 10° 207° (SSW) 2,402 9.4 -17.6°
Maximum altitude 07:38:51 15° 171° (S) 2,388 9.8 -16.8°
Drops below altitude 10° 07:43:06 10° 137° (SE) 3,253 11.0 -15.8°
Sets 07:48:33 0° 117° (ESE) 4,873 12.7 -14.5°
